Flag for Germany Weather past 2 weeks in Wesseling, North Rhine-Westphalia, Germany

Now
61 °F

Overcast.


Feels Like: 61 °F
Forecast: 54 / 75 °F
Wind: 3 mph from Southwest

Location: Koeln / Bonn

Current Time: May 4, 2015 at 11:26:18 AM

Latest Report: May 4, 2015 at 11:00 AM


Visibility: 31 mi

Pressure: 29.81 "Hg

Humidity: 75%

Dew point: 53 °F

Location of WesselingLocation

Historic Weather in Wesseling — Graph

°F

Wesseling temperature yesterday

Maximum temperature yesterday: 62 °F (at 1:00 PM)
Minimum temperature yesterday: 50 °F (at 4:00 AM)
Average temperature yesterday: 56 °F

Past Weeks' High & Low Weather Summary

 TemperatureHumidityPressure
High72 °F (Apr 24, 5:00 PM)100% (Apr 27, 12:00 AM)30.45 "Hg (Apr 27, 12:00 AM)
Low30 °F (Apr 29, 6:00 AM)24% (Apr 24, 5:00 PM)29.61 "Hg (Apr 27, 4:00 AM)
Average51 °F72%29.98 "Hg
* Reported Apr 19 10:00 AM — May 4 10:00 AM, Wesseling, Weather by CustomWeather, © 2015

Note: Actual official high and low records may vary slightly from our data, if they occured in-between our weather recording intervals... More about our weather records

Advertising

Wesseling weather history for previous 24 hours

 ConditionsComfort  
Time TempWeatherWind HumidityBarometerVisibility
10:00 AM
Mon, May 4
62 °FOvercast.5 mph75%29.80 "Hg31 mi
9:00 AM59 °FOvercast.3 mph86%29.81 "Hg31 mi
8:00 AM57 °FOvercast.2 mph89%29.78 "Hg31 mi
7:00 AM56 °FOvercast.3 mph93%29.77 "Hg31 mi
6:00 AM56 °FOvercast.3 mph95%29.75 "Hg31 mi
5:00 AM55 °FPassing clouds.2 mph96%29.75 "Hg37 mi
4:00 AM56 °FOvercast.1 mph94%29.75 "Hg37 mi
3:00 AM57 °FOvercast.2 mph91%29.74 "Hg37 mi
2:00 AM56 °FPassing clouds.2 mph95%29.73 "Hg37 mi
1:00 AM57 °FOvercast.3 mph94%29.72 "Hg25 mi
12:00 AM58 °FSprinkles. Passing clouds.3 mph94%29.70 "Hg19 mi
11:00 PM
Sun, May 3
59 °FPassing clouds.5 mph92%29.68 "Hg37 mi
10:00 PM57 °FPassing clouds.3 mph98%29.65 "Hg37 mi
9:00 PM59 °FLow clouds.1 mph97%29.63 "Hg25 mi
8:00 PM60 °FOvercast.2 mph97%29.62 "Hg7 mi
7:00 PM59 °FLight rain. Overcast.5 mph97%29.62 "Hg16 mi
6:00 PM60 °FLight rain. Overcast.3 mph98%29.62 "Hg7 mi
5:00 PM59 °FRain. Overcast.3 mph99%29.63 "Hg6 mi
4:00 PM60 °FRain. Overcast.5 mph95%29.64 "Hg6 mi
3:00 PM60 °FDrizzle. Overcast.5 mph92%29.65 "Hg5 mi
2:00 PM61 °FDrizzle. Overcast.5 mph79%29.65 "Hg16 mi
1:00 PM62 °FOvercast.5 mph73%29.65 "Hg37 mi
12:00 PM60 °FOvercast.6 mph79%29.65 "Hg28 mi
11:00 AM56 °FRain. Overcast.6 mph84%29.67 "Hg4 mi
Weather by CustomWeather, © 2015

See weather overviewHow to use our weather pages